[[{"header":{"parameterUnit":"m.s-1","parameterCategory":1,"la1":30.2991,"la2":30.254,"lo1":-89.0895,"lo2":-89.0444,"dy":0.0017,"dx":0.0017,"nx":28,"ny":28,"refTime":"2025-09-18T21:00:00:Z","depth":0,"parameterNumber":2,"parameterNumberName":"U-component_of_WINDS"},"data":[0,0,0,0,0,0,0,0,0,0,0,0,0,0,0,0,0,0,0,0,0,0,0,0,0,0,0,0,0,0,0,0,0,0,0,0,0,0,0,0,0,0,0,0,0,0,0,0,0,0,0,0,0,0,0,0,0,0,0.3126,0.3127,0,0.323,0.3232,0.3233,0.3251,0.325,0.325,0.3249,0.3359,0.3363,0.3366,0,0,0,0,0,0,0,0,0,0,0,0,0,0.2943,0.2946,0.3126,0.3127,0.3128,0.323,0.3232,0.3233,0.3251,0.325,0.3249,0.3248,0.3358,0.3362,0.3367,0,0,0,0,0,0,0,0,0,0,0,0,0,0.3032,0.2947,0.3126,0.315,0.3153,0.323,0.3232,0.3233,0.3252,0.325,0.3249,0.3248,0.3356,0.3362,0.3367,0.3428,0,0,0.3384,0.3387,0,0,0,0,0,0,0,0,0.3027,0.3039,0.3145,0.3148,0.3152,0.3226,0.3207,0.3299,0.3252,0.3214,0.3249,0.3247,0.3316,0.3325,0.3347,0.3433,0.3438,0.3385,0.3388,0.3391,0.3392,0,0,0,0,0,0,0,0.3021,0.3035,0.3167,0.3146,0.3151,0.3156,0.3167,0.3225,0.3271,0.3218,0.3219,0.3231,0.3318,0.3342,0.335,0.344,0.3385,0.339,0.3393,0.3395,0.3578,0.3579,0,0,0,0,0,0,0.301,0.3029,0.3164,0.317,0.3085,0.316,0.3173,0.3204,0.3271,0.328,0.3232,0.3232,0.3333,0.3344,0.3354,0.3428,0.3391,0.3396,0.3399,0.3576,0.3578,0.358,0,0,0,0,0,0,0.3006,0.3022,0.316,0.31,0.3118,0.3165,0.32,0.3207,0.3231,0.3282,0.329,0.3248,0.3332,0.3346,0.3409,0.3432,0.3398,0.3404,0.3575,0.3577,0.3579,0.3578,0,0,0,0,0,0,0.3001,0.3021,0.3044,0.3101,0.3121,0.3212,0.3201,0.321,0.324,0.324,0.3299,0.3308,0.3332,0.34,0.3414,0.344,0.3408,0.3573,0.3576,0.3578,0.3576,0.358,0.3583,0,0,0,0,0,0.2994,0.3041,0.3045,0.3062,0.3152,0.3214,0.3226,0.3252,0.3242,0.3266,0.3298,0.3306,0.3427,0.3406,0.3423,0.345,0.3571,0.3575,0.3578,0.3575,0.3579,0.3583,0,0,0,0,0,0,0.2988,0.3049,0.3055,0.3121,0.3162,0.3217,0.3248,0.3257,0.3302,0.3301,0.3333,0.3346,0.3406,0.3434,0.341,0.3511,0.3499,0.3505,0.349,0.3495,0.3499,0.3491,0.3413,0,0,0,0,0,0.2994,0.3039,0.309,0.3144,0.3163,0.3202,0.323,0.3247,0.3291,0.3309,0.3346,0.3389,0.3436,0.3467,0.3514,0.358,0.3592,0.3606,0.361,0.3612,0.3618,0.3652,0.3659,0.3591,0.3591,0.3591,0,0,0.3008,0.3047,0.3073,0.3143,0.3177,0.3222,0.3217,0.3266,0.33,0.3317,0.3377,0.3405,0.3456,0.3519,0.3549,0.3544,0.3639,0.3617,0.3618,0.3623,0.3656,0.3663,0.3669,0.3593,0.3593,0.3592,0,0,0.3056,0.309,0.3137,0.317,0.322,0.3245,0.3256,0.3309,0.3328,0.3389,0.3402,0.3443,0.3525,0.3559,0.3587,0.3644,0.3653,0.3659,0.3677,0.3711,0.3716,0.3721,0.374,0.3747,0.3664,0.3664,0.3664,0,0.3067,0.3135,0.3161,0.3208,0.3238,0.3253,0.3301,0.3332,0.3395,0.3415,0.3409,0.351,0.3545,0.3616,0.3629,0.3652,0.3665,0.3653,0.3713,0.3718,0.3723,0.3742,0.3749,0.3664,0.3664,0.3664,0.3664,0,0.3145,0.3192,0.3225,0.3283,0.3317,0.3364,0.3396,0.3427,0.344,0.3465,0.3526,0.3568,0.3622,0.364,0.3654,0.3712,0.3707,0.3706,0.3695,0.3729,0.3747,0.3755,0.3665,0.3665,0.3665,0.3665,0,0,0.3194,0.3264,0.3275,0.3301,0.3356,0.3393,0.344,0.3492,0.3517,0.356,0.36,0.3667,0.3665,0.3697,0.3715,0.3744,0.3784,0.3739,0.3741,0.3745,0.3849,0.3849,0.3857,0.3789,0.3791,0.3792,0.3844,0,0.3248,0.3332,0.3355,0.3427,0.3469,0.3483,0.3524,0.3562,0.3586,0.3626,0.3653,0.3699,0.3695,0.3713,0.3743,0.3773,0.3805,0.377,0.3827,0.3829,0.3814,0.3866,0.3867,0.3915,0.3852,0.3853,0.3854,0,0.3323,0.3364,0.3439,0.3486,0.3505,0.3542,0.3589,0.3627,0.367,0.3685,0.3719,0.3733,0.3782,0.3767,0.3834,0.381,0.3834,0.3852,0.3854,0.3861,0.3843,0.3874,0.3931,0.3938,0.3865,0.3864,0.3864,0,0.3349,0.3424,0.3478,0.35,0.3557,0.3581,0.3606,0.3647,0.3676,0.3718,0.3736,0.3784,0.381,0.3846,0.3872,0.3859,0.3936,0.3924,0.395,0.3949,0.3967,0.3965,0.4028,0.3983,0.3983,0.3982,0.3982,0,0.3407,0.3452,0.3491,0.3524,0.3574,0.36,0.3649,0.3674,0.371,0.3748,0.3763,0.3798,0.3831,0.387,0.3891,0.3942,0.3955,0.3968,0.3973,0.3967,0.3965,0.3983,0.3981,0.3984,0.3984,0.3984,0.3983,0,0.3446,0.3473,0.3533,0.358,0.3593,0.3628,0.3669,0.3701,0.3725,0.3772,0.3785,0.3822,0.3869,0.3898,0.3959,0.3972,0.4029,0.4033,0.4014,0.4016,0.404,0.4037,0.4117,0.4128,0.4076,0.4076,0.4077,0,0.3481,0.3515,0.3565,0.3591,0.3616,0.3658,0.3686,0.3712,0.3741,0.379,0.3816,0.3864,0.3903,0.3977,0.401,0.4055,0.406,0.4084,0.4067,0.4059,0.4059,0.4057,0.406,0.4088,0.4088,0.4088,0.4089,0,0.3539,0.355,0.359,0.3635,0.3668,0.3704,0.3741,0.3761,0.3793,0.3824,0.3872,0.3902,0.3962,0.4008,0.4056,0.4081,0.409,0.4093,0.4102,0.4096,0.4083,0.4089,0.4021,0.4092,0.4092,0.4091,0.4091,0.4091,0.3577,0.3607,0.3646,0.369,0.3719,0.3752,0.3784,0.381,0.385,0.39,0.3913,0.3962,0.4001,0.4066,0.4092,0.413,0.4127,0.4139,0.4142,0.4145,0.4144,0.4076,0.4139,0.4139,0.4139,0.4139,0.4139,0,0.3635,0.366,0.37,0.3749,0.3783,0.3786,0.3826,0.3854,0.3897,0.3932,0.397,0.4023,0.4067,0.4102,0.4147,0.4171,0.4176,0.4182,0.4181,0.4186,0.4146,0.4133,0.4177,0.4177,0.4177,0.4177,0.4177,0.4177,0.3669,0.372,0.3736,0.3801,0.3826,0.3873,0.3895,0.3925,0.3953,0.4012,0.4048,0.407,0.4104,0.4152,0.4192,0.4201,0.4217,0.4222,0.4232,0.4193,0.4189,0.4185,0.4174,0.4225,0.4225,0.4269,0.4269,0.4269]},{"header":{"parameterUnit":"m.s-1","parameterCategory":1,"la1":30.2991,"la2":30.254,"lo1":-89.0895,"lo2":-89.0444,"dy":0.0017,"dx":0.0017,"nx":28,"ny":28,"refTime":"2025-09-18T21:00:00:Z","depth":0,"parameterNumber":3,"parameterNumberName":"V-component_of_WINDS"},"data":[0,0,0,0,0,0,0,0,0,0,0,0,0,0,0,0,0,0,0,0,0,0,0,0,0,0,0,0,0,0,0,0,0,0,0,0,0,0,0,0,0,0,0,0,0,0,0,0,0,0,0,0,0,0,0,0,0,0,3.0997,3.0996,0,3.0966,3.0965,3.0965,3.0993,3.0994,3.0995,3.0996,3.0959,3.0957,3.0955,0,0,0,0,0,0,0,0,0,0,0,0,0,3.1073,3.1072,3.0997,3.0996,3.0996,3.0966,3.0965,3.0965,3.0992,3.0994,3.0995,3.0996,3.096,3.0957,3.0955,0,0,0,0,0,0,0,0,0,0,0,0,0,3.1041,3.1071,3.0997,3.1006,3.1007,3.0966,3.0965,3.0965,3.0992,3.0994,3.0995,3.0997,3.096,3.0957,3.0954,3.0901,0,0,3.0945,3.0944,0,0,0,0,0,0,0,0,3.1043,3.1038,3.1005,3.1005,3.1006,3.0985,3.0979,3.0943,3.0992,3.0997,3.0996,3.0998,3.0966,3.0962,3.0953,3.09,3.0898,3.0945,3.0943,3.0942,3.0941,0,0,0,0,0,0,0,3.1045,3.1039,3.0984,3.1004,3.1005,3.101,3.1007,3.0972,3.0972,3.0997,3.0999,3.0995,3.0966,3.0956,3.0952,3.0898,3.0945,3.0942,3.094,3.0939,3.0796,3.0795,0,0,0,0,0,0,3.1047,3.1041,3.0985,3.0983,3.1029,3.1007,3.1004,3.099,3.0973,3.0972,3.0994,3.0997,3.096,3.0956,3.0951,3.0885,3.0942,3.0939,3.0937,3.0798,3.0796,3.0794,0,0,0,0,0,0,3.1048,3.1042,3.0986,3.1013,3.1006,3.1004,3.0988,3.0988,3.0978,3.097,3.097,3.0983,3.0961,3.0955,3.0913,3.0885,3.0937,3.0935,3.0801,3.0798,3.0795,3.0755,0,0,0,0,0,0,3.1051,3.1042,3.1023,3.1012,3.1005,3.0951,3.0986,3.0986,3.0973,3.0976,3.096,3.0959,3.0962,3.0918,3.091,3.0881,3.0932,3.0803,3.0799,3.0796,3.0759,3.0751,3.0745,0,0,0,0,0,3.1053,3.1013,3.1022,3.1015,3.0981,3.0949,3.0945,3.095,3.0971,3.095,3.0946,3.096,3.089,3.0913,3.0905,3.0875,3.0805,3.08,3.0796,3.0762,3.0753,3.0745,0,0,0,0,0,0,3.1019,3.1011,3.1022,3.0977,3.0964,3.0954,3.0929,3.0941,3.092,3.0924,3.093,3.0926,3.0881,3.0874,3.0901,3.0821,3.085,3.0844,3.0827,3.0818,3.0811,3.0812,3.093,0,0,0,0,0,3.1006,3.0983,3.0977,3.0938,3.0931,3.0931,3.0917,3.0923,3.0909,3.0903,3.0895,3.0879,3.0853,3.0836,3.0812,3.0759,3.0754,3.0734,3.0727,3.0721,3.0715,3.0683,3.0673,3.078,3.078,3.078,0,0,3.098,3.0973,3.0957,3.0931,3.0921,3.0894,3.0926,3.0897,3.0876,3.0898,3.0857,3.0851,3.0833,3.0785,3.0764,3.0778,3.0685,3.0715,3.0711,3.0708,3.0678,3.0668,3.0659,3.0777,3.0777,3.0778,0,0,3.0917,3.091,3.0876,3.0866,3.0851,3.0852,3.0843,3.0832,3.0829,3.0789,3.0804,3.0779,3.0735,3.0721,3.0708,3.0639,3.065,3.0632,3.0593,3.0562,3.0554,3.0547,3.0519,3.0509,3.0626,3.0626,3.0626,0,3.0884,3.0847,3.0856,3.0826,3.0812,3.0833,3.0796,3.0785,3.0763,3.0752,3.0769,3.0713,3.0703,3.0651,3.0634,3.0624,3.0612,3.0632,3.0555,3.0547,3.0541,3.0514,3.0504,3.0623,3.0624,3.0624,3.0624,0,3.0806,3.078,3.0753,3.0732,3.0716,3.0683,3.0686,3.0668,3.0675,3.0673,3.063,3.0619,3.0592,3.0581,3.0587,3.0528,3.0537,3.0555,3.0583,3.0528,3.0503,3.0493,3.062,3.0621,3.0621,3.0622,0,0,3.0719,3.0705,3.0694,3.0684,3.067,3.0648,3.0615,3.059,3.0573,3.0557,3.0527,3.049,3.0505,3.0491,3.0495,3.0469,3.0412,3.0489,3.0489,3.0472,3.0343,3.0328,3.0316,3.042,3.0418,3.0417,3.0343,0,3.0654,3.0597,3.0605,3.0549,3.0523,3.0542,3.0512,3.0499,3.0496,3.0472,3.0468,3.044,3.0464,3.0455,3.043,3.0424,3.0385,3.043,3.0389,3.0388,3.039,3.0304,3.0288,3.0219,3.0334,3.0332,3.0331,0,3.0569,3.0551,3.0493,3.0481,3.0471,3.0444,3.0421,3.0399,3.0383,3.0382,3.0366,3.0375,3.0339,3.0371,3.0319,3.0349,3.0333,3.0328,3.0325,3.0319,3.0354,3.0292,3.0197,3.0186,3.0317,3.0318,3.0319,0,3.0508,3.0469,3.0429,3.042,3.0406,3.0386,3.0379,3.0366,3.0349,3.0329,3.0318,3.0293,3.0278,3.0258,3.0259,3.0282,3.0205,3.0238,3.0201,3.0201,3.0182,3.0182,3.008,3.0177,3.0177,3.0177,3.0177,0,3.0432,3.0395,3.0401,3.0376,3.0334,3.0343,3.0301,3.0296,3.0284,3.0256,3.0271,3.0245,3.0249,3.0222,3.0223,3.0178,3.0172,3.0169,3.0169,3.0166,3.0166,3.0153,3.0157,3.0174,3.0175,3.0175,3.0176,0,3.0355,3.0358,3.0315,3.0305,3.0302,3.0272,3.0262,3.0237,3.0236,3.0201,3.0193,3.019,3.0159,3.0159,3.0123,3.0123,3.0068,3.0075,3.0073,3.0073,3.0036,3.0038,2.9919,2.9902,3.0013,3.0012,3.0011,0,3.0305,3.0277,3.0265,3.0248,3.024,3.0213,3.0197,3.0204,3.0186,3.0166,3.0143,3.0113,3.009,3.0038,3.0031,3.0003,3.0008,2.9968,3.0003,3.0,3.0003,3.0003,2.9999,2.996,2.9959,2.9958,2.9957,0,3.0214,3.0217,3.0195,3.0171,3.0152,3.0134,3.0118,3.0103,3.0108,3.0086,3.0055,3.0037,3.0001,2.997,2.9943,2.9933,2.9944,2.9946,2.9936,2.993,2.9929,2.9926,3.0051,2.9948,2.9949,2.995,2.995,2.995,3.0147,3.0123,3.011,3.0083,3.0072,3.0056,3.0031,3.0027,3.0002,2.9974,2.9979,2.9944,2.9927,2.9892,2.988,2.985,2.9864,2.9849,2.9845,2.984,2.9835,2.9937,2.9845,2.9846,2.9846,2.9846,2.9846,0,3.0055,3.0048,3.0024,3.0,2.9979,2.9994,2.9976,2.9956,2.9925,2.991,2.9887,2.985,2.982,2.9811,2.9781,2.9759,2.9763,2.9751,2.9751,2.9748,2.9826,2.9836,2.9748,2.9748,2.9748,2.9748,2.9748,2.9748,3.0004,2.9962,2.9964,2.9915,2.9908,2.9874,2.9862,2.9847,2.9834,2.9792,2.9768,2.9764,2.975,2.9719,2.9691,2.9689,2.9676,2.9661,2.966,2.9733,2.9742,2.9752,2.9762,2.9659,2.9658,2.9584,2.9583,2.9583]}]]